Location: Cosy Dell
(34.2789°N, 117.4537°W)
Time: 19:54:06
(UTC+00:00)

VEP-3 - Pass Details

Date: 14 July 2020
Orbit: 1020 x 33723 km, 23.7° (Epoch: 13 August)

Event Time Altitude Azimuth Distance (km) Brightness Sun altitude
Rises 06:21:09 0° 260° (W) 3,874 5.8 -29.8°
Reaches altitude 10° 06:23:14 10° 249° (WSW) 3,167 5.2 -29.9°
Enters shadow 06:26:55 31° 216° (SW) 2,553 4.3 -30.3°
Exits shadow 06:47:03 15° 124° (SE) 8,819 6.9 -31.8°
Drops below altitude 10° 06:53:56 10° 121° (ESE) 11,099 7.5 -32.2°
Sets 07:23:12 0° 116° (ESE) 18,973 8.8 -33.6°
